Preview of NWS' New Version of Forecast
This preview is not operational and should not be used for support decisions.

Regional Weather Roundup (RWR)

Issued by National Weather Service (NWS)

                            
000
ASUS45 KABQ 230110
RWRNM 
NEW MEXICO REGIONAL WEATHER ROUNDUP
NATIONAL WEATHER SERVICE ALBUQUERQUE NM
700 PM MDT FRI MAR 22 2019

NOTE: "FAIR" MEANS FEW OR NO CLOUDS BELOW 12,000 FEET AGL WITH NO
       SIGNIFICANT WEATHER OR OBSTRUCTIONS TO VISION.

      THIS PRODUCT IS RELEASED AS TWO VERSIONS.  ONE VERSION NEAR
      THE TOP OF THE HOUR CONTAINING PRELIMINARY DATA FROM ALBUQUERQUE
      AND OTHER STATIONS.  A FINAL VERSION WITH ADDITIONAL DATA IS 
      ISSUED ABOUT 10 MINUTES AFTER THE HOUR.
 
NMZ501-503-504-510>518-230200-
NORTHWEST PLATEAU/NORTHCENTRAL MOUNTAINS
  
CITY           SKY/WX    TMP DP  RH WIND       PRES   REMARKS
FARMINGTON     MOCLDY    48  25  40 W14G21    30.03R                  
LOS ALAMOS     FAIR      41  19  41 W9        30.02R                  
SANTA FE       FAIR      48  17  29 W18G26    30.00R                  
ANGEL FIRE       N/A     32  24  73 W10       30.01R WCI  23          

$$
NMZ402-403-502-505>509-230200-
WESTCENTRAL MOUNTAINS/SOUTHWEST MOUNTAINS
  
CITY           SKY/WX    TMP DP  RH WIND       PRES   REMARKS
GALLUP         CLOUDY    46  22  38 W16       30.09R                  
GRANTS         CLOUDY    47  15  28 W22G30    30.08R                  
SILVER CITY    FAIR      55  15  20 W20       30.06R                  

$$
NMZ407-409-411-412-230200-
SOUTHERN DESERTS
  
CITY           SKY/WX    TMP DP  RH WIND       PRES   REMARKS
DEMING         FAIR      63  17  17 W17G25    30.02R                  
LAS CRUCES     FAIR      65  12  12 W17G24    30.01R                  
HOLLOMAN AFB   FAIR      66  12  12 S15         N/A                   
ALAMOGORDO     FAIR      64  10  12 SW14G21   29.97R                  
T OR C         FAIR      66   9  10 W15       29.95R                  

$$
NMZ519>523-230200-
CENTRAL VALLEYS/CENTRAL HIGHLANDS
  
CITY           SKY/WX    TMP DP  RH WIND       PRES   REMARKS
ALBUQUERQUE    MOCLDY    56  18  22 NW14      30.00R                  
DOUBLE EAGLE   MOCLDY    52  18  25 NW21G28   30.02R                  
MORIARTY ARPT  FAIR      49  21  32 NW14      30.02R                  
CLINES CORNERS FAIR      44  18  35 NW18G30   30.01R                  
BELEN          FAIR      57  12  17 NW13G18   30.00R                  
SOCORRO        FAIR      62  12  13 NW14G20   29.95R                  

$$
NMZ524>526-539-540-230200-
SOUTHCENTRAL MOUNTAINS
  
CITY           SKY/WX    TMP DP  RH WIND       PRES   REMARKS
RUIDOSO        FAIR      50  10  20 SW18G24   30.03R                  

$$
NMZ527>531-230200-
NORTHEAST HIGHLANDS/NORTHEAST PLAINS
  
CITY           SKY/WX    TMP DP  RH WIND       PRES   REMARKS
LAS VEGAS      FAIR      43  20  39 W13       29.98R                  
RATON          FAIR      40  27  59 W8        29.92R WCI  34          
CLAYTON        FOG       41  40  96 NE7       29.92R VSB 1            

$$
NMZ532>537-230200-
EASTCENTRAL PLAINS
  
CITY           SKY/WX    TMP DP  RH WIND       PRES   REMARKS
SANTA ROSA     FAIR      58  15  18 W20G29    29.91R                  
TUCUMCARI      FAIR      63  23  21 NW17      29.85R                  
CANNON AFB     PTCLDY    64  21  19 W10       29.88R                  
CLOVIS AIRPORT TSTM      58  47  66 SW8       29.89R                  

$$
NMZ028-029-538-230200-
SOUTHEAST PLAINS
  
CITY           SKY/WX    TMP DP  RH WIND       PRES   REMARKS
ROSWELL        FAIR      71  11  10 W15       29.87R                  
ARTESIA        FAIR      70  16  12 SW23      29.91R                  
CARLSBAD       FAIR      71  19  14 W18       29.90R                  
HOBBS          FAIR      64  50  59 S12       29.93R                  


$$